Regional Weather Roundup
Issued by NWS

Home | Current Version | Previous Version | Text Only | Print | Product List | Glossary Off
Versions: 1 2 3 4 5 6 7 8 9 10 11 12 13 14 15 16 17 18 19 20 21 22 23 24 25 26 27 28 29 30 31 32 33 34 35 36 37 38 39 40 41 42 43 44 45 46 47 48 49 50

000
ASUS45 KTFX 241304
RWRMT
MONTANA HOURLY WEATHER ROUNDUP
NATIONAL WEATHER SERVICE GREAT FALLS MT
704 AM MDT FRI OCT 24 2014

NOTE: "FAIR" INDICATES FEW OR NO CLOUDS BELOW 12000 FEET WITH NO
SIGNIFICANT WEATHER AND/OR OBSTRUCTIONS TO VISIBILITY.

* THESE STATIONS ARE NOT UNDER NWS QUALITY CONTROL. THEY DO NOT
   REPORT WEATHER SUCH AS PRECIPITATION OR FOG.

MTZ001>007-043-241400-
WEST OF THE DIVIDE
CITY           SKY/WX    TMP DP  RH WIND       PRES   REMARKS
KALISPELL      CLOUDY    43  36  76 S5        30.04R
MISSOULA       CLOUDY    43  43 100 W5        30.10R
BUTTE          CLOUDY    45  36  71 CALM      30.08R
MULLAN PASS    CLOUDY    32  30  92 SW8       30.04S WCI  25
* ESSEX        N/A       40  38  93 NE2        N/A
* LINCOLN      N/A       40  37  89 W2G9       N/A
* POLSON       N/A       41  34  76 S2G8       N/A
* RONAN APT    CLOUDY    45  39  80 SE5        N/A
* SEELEY LAKE  N/A       40  37  89 N2         N/A
* THOMP F APT  CLOUDY    42  36  79 E3G10      N/A
* YAAK HILL    N/A       42  39  89 N1         N/A
$$

MTZ008-052>055-241400-
SOUTHWEST MONTANA
CITY           SKY/WX    TMP DP  RH WIND       PRES   REMARKS
BOZEMAN        CLOUDY    52  37  57 NW10      30.02R
DILLON         CLOUDY    46  37  71 SW8       30.04S
W YELLOWSTONE  N/A       41  36  82 CALM      30.16R
* THREE FORKS  MOCLDY    48  48 100 N/A        N/A
* BOULDER HILL N/A       45  32  60 S4G13      N/A
* MONIDA PASS  N/A       40  36  86 SE19G26    N/A   WCI  31
* RAYNOLDS PAS N/A       43  28  56 S10        N/A
* WHITEHALL    N/A       51  38  61 NW7G14     N/A
* WISE RIVER   N/A       42  35  76 NW11G18    N/A
$$

MTZ009>010-012-014-046-048-049-054-241400-
EAST SLOPES AND CENTRAL MONTANA
CITY           SKY/WX    TMP DP  RH WIND       PRES   REMARKS
CUT BANK       PTCLDY    43  30  60 W23       29.94R
GREAT FALLS    PTCLDY    46  34  63 SW14      29.98S
HELENA         CLOUDY    46  37  71 NW10      30.05R
MALMSTROM AFB  PTCLDY    45  36  71 S13       30.01R
* CONRAD       CLEAR     43  28  56 SW6        N/A
* DEARBORN     N/A       51  33  50 NE1G11     N/A
* EAST GLACIER N/A       39  30  70 NW9G17     N/A   WCI  33
* MONARCH      N/A       41  27  58 W9         N/A
* PENDROY      N/A       43  25  49 W23G29     N/A
* ROGERS PASS  N/A       37  33  85 SE14G23    N/A   WCI  28
* SAINT MARY   N/A       39  32  76 S5G17      N/A   WCI  35
* SWEET GRASS  N/A       43  29  58 W30G42     N/A
$$

MTZ011-013-016-021-035-040-045-047-050-051-241400-
NORTH CENTRAL MONTANA
CITY           SKY/WX    TMP DP  RH WIND       PRES   REMARKS
HAVRE          PTCLDY    46  34  63 SW13      29.94R
LEWISTOWN      CLOUDY    50  36  59 W8        30.01R
* CHESTER      N/A       43  29  58 W9G14      N/A
* DENTON       N/A       52  36  55 W13G22     N/A
* GEYSER       N/A       46  33  61 W22G29     N/A
* JUDITH GAP   N/A       46  40  80 VRB9       N/A
* LOMA         N/A       47  36  66 SW9        N/A
$$

MTZ017>020-022>027-061-062-241400-
NORTHEAST MONTANA
CITY           SKY/WX    TMP DP  RH WIND       PRES   REMARKS
GLASGOW        CLOUDY    50  39  66 W7        29.88R
GLENDIVE       CLEAR     46  36  68 NW6       29.92R
JORDAN         CLOUDY    43  36  76 NW6       29.93R
SIDNEY         MOCLDY    37  34  89 S6        29.88R WCI  32
WOLF POINT     PTCLDY    45  39  80 W3        29.88R
* BEAVER HILL  N/A       47  32  56 SW9        N/A
* CIRCLE       N/A       42  35  76 N/A        N/A
* LINDSAY DVD  N/A       50  36  59 W9         N/A
* NAVAJO       N/A       50  37  61 W20G29     N/A
* SACO         N/A       49  40  71 W9         N/A
$$

MTZ028>042-056>058-241400-
SOUTHCENTRAL AND SOUTHEAST MONTANA
CITY           SKY/WX    TMP DP  RH WIND       PRES   REMARKS
BAKER          PTCLDY    46  30  54 N6        29.94R
BILLINGS       MOCLDY    52  36  55 CALM      29.99R
LIVINGSTON     MOCLDY    57  36  46 SW24G35   29.99R
MILES CITY     PTCLDY    43  34  71 S6        29.95R
* LAUREL APT   PTCLDY    45  28  51 N/A        N/A
* ROUNDUP APT  MOCLDY    45  34  65 S5         N/A
* ALZADA       N/A       41  30  65 W1         N/A
* HYSHAM       N/A       52  29  41 N/A        N/A
* LAME DEER    N/A       52  31  45 VRB10      N/A
* REED POINT   N/A       36  34  92 W1G13      N/A
* ROSCOE HILL  N/A       59  25  27 S20G32     N/A
$$

REGIONAL REPORTS...DAKOTAS
CITY           SKY/WX    TMP DP  RH WIND       PRES   REMARKS
WILLISTON      PTCLDY    45  36  71 S3        29.83R
DICKINSON      CLOUDY    41  30  65 W7        29.86R
BEACH          N/A       46  32  58 W13       29.91R
CROSBY         CLOUDY    50  39  66 SW14      29.79R
TIOGA          MOCLDY    48  39  71 W10       29.85R
BISMARCK       CLOUDY    39  34  82 W3        29.85R
GRAND FORKS    PTCLDY    39  36  89 SW6       29.75R WCI  35
FARGO          PTCLDY    45  39  80 S10       29.78F
BUFFALO SD     MOCLDY    46  27  48 W8        29.86R
RAPID CITY     CLOUDY    50  32  50 N12       29.93R
$$

REGIONAL REPORTS...WYOMING/IDAHO/WASHINGTON
CITY           SKY/WX    TMP DP  RH WIND       PRES   REMARKS
GILLETTE       CLOUDY    54  25  33 CALM      30.00R
SHERIDAN       CLOUDY    39  28  65 NW7       29.99R WCI  34
CODY           CLOUDY    61  28  29 W6        30.04R
YELLOWSTONE LA MOCLDY    43  32  65 VRB5      30.22R
SALMON         CLOUDY    48  41  77 NW3       30.05S
MULLAN PASS    CLOUDY    32  30  92 SW8       30.04S WCI  25
SAND POINT     CLOUDY    43  43 100 CALM      30.05R
SPOKANE        CLOUDY    43  39  86 S9        30.04S

$$




USA.gov is the U.S. government's official web portal to all federal, state and local government web resources and services.